EW6866 Weather Reports


time (UTC)temp
F
wind
direction
speed
knots
gust
knots
rain 1hr
in
rain 24hr
in
rain mn
in
humidity
%
barometer
mb
20260831040027 74 0 0.0 0.0 0.00 0.00 0.00 96 1018.8
20260831034526 75 0 0.0 0.0 0.00 0.00 0.00 96 1018.7
20260831033025 74 0 0.0 0.0 0.00 0.00 0.00 96 1018.9
20260831031505 75 0 0.0 0.0 0.00 0.00 0.00 96 1018.8
20260831030026 75 0 0.0 0.0 0.00 0.00 0.00 96 1018.8
20260831024504 75 0 0.0 0.0 0.00 0.00 0.00 95 1019.0
20260831023026 75 0 0.0 0.0 0.00 0.00 0.00 95 1019.0
20260831021505 75 0 0.0 0.0 0.00 0.00 0.00 95 1019.0
20260831020026 76 0 0.0 0.0 0.00 0.00 0.00 94 1019.1
20260831014526 76 0 0.0 0.0 0.00 0.00 0.00 94 1019.0
20260831013004 76 0 0.0 0.0 0.00 0.00 0.00 93 1019.0
20260831011505 76 0 0.0 0.0 0.00 0.00 0.00 92 1018.9
20260831010005 77 0 0.0 0.0 0.00 0.00 0.00 91 1018.9
20260831004526 78 268 0.0 0.9 0.00 0.00 0.00 91 1018.7
20260831003004 78 279 0.0 0.9 0.00 0.00 0.00 89 1018.5
20260831001505 78 253 0.0 0.9 0.00 0.00 0.00 89 1018.7
20260831000005 79 245 0.0 1.7 0.00 0.00 0.00 88 1018.7
20260830234526 79 285 0.0 2.6 0.00 0.00 0.00 87 1018.7
20260830233025 80 267 0.0 4.3 0.00 0.00 0.00 86 1018.9
20260830231525 81 276 0.0 3.5 0.00 0.00 0.00 86 1019.0
20260830230005 82 262 0.0 4.3 0.00 0.00 0.00 85 1018.9
20260830224505 82 252 0.0 3.5 0.00 0.00 0.00 82 1019.0
20260830223004 82 0 0.0 0.0 0.00 0.00 0.00 84 1019.0
20260830221505 83 0 0.0 0.0 0.00 0.00 0.00 82 1018.8
20260830220005 83 325 0.0 0.9 0.00 0.00 0.00 82 1018.9
20260830214504 84 0 0.0 0.0 0.00 0.00 0.00 81 1018.9
20260830213004 84 290 0.9 2.6 0.00 0.00 0.00 78 1018.9
20260830211504 85 269 0.9 2.6 0.00 0.00 0.00 78 1018.7
20260830210004 85 276 0.0 2.6 0.00 0.00 0.00 79 1018.6
20260830204504 84 292 0.9 4.3 0.00 0.00 0.00 80 1018.6
20260830203005 85 280 0.0 2.6 0.00 0.00 0.00 77 1018.7
20260830201505 87 287 0.0 1.7 0.00 0.00 0.00 75 1018.8
20260830200004 88 64 0.0 0.9 0.00 0.00 0.00 71 1018.7
20260830194505 88 290 0.0 2.6 0.00 0.00 0.00 69 1019.0
20260830193004 87 273 0.0 2.6 0.00 0.00 0.00 71 1019.1
20260830191504 87 258 0.0 2.6 0.00 0.00 0.00 68 1019.3
20260830190004 88 260 0.0 2.6 0.00 0.01 0.00 70 1019.6
20260830184526 87 262 0.0 1.7 0.00 0.01 0.00 69 1019.6
20260830183004 88 223 0.0 1.7 0.00 0.01 0.00 69 1019.8
20260830181504 88 259 0.0 1.7 0.00 0.01 0.00 67 1019.8
20260830180026 88 223 0.9 2.6 0.00 0.01 0.00 71 1019.8
20260830174504 88 263 0.0 3.5 0.00 0.01 0.00 72 1019.8
20260830173004 88 267 0.0 0.9 0.00 0.01 0.00 74 1020.0
20260830171525 86 257 0.0 1.7 0.00 0.01 0.00 73 1020.2
20260830170004 85 224 0.0 2.6 0.00 0.01 0.00 76 1020.4
20260830164504 85 187 0.0 1.7 0.00 0.01 0.00 80 1020.5
20260830163004 84 257 0.0 2.6 0.00 0.01 0.00 77 1020.6
20260830161504 85 263 0.0 0.9 0.00 0.01 0.00 78 1020.5
20260830160004 85 134 0.0 0.9 0.00 0.01 0.00 78 1020.6
20260830154504 85 64 0.0 0.9 0.00 0.01 0.00 78 1020.7
20260830153004 83 123 0.0 0.9 0.00 0.01 0.00 80 1020.8
20260830151504 82 96 0.0 0.9 0.00 0.01 0.00 84 1021.2
20260830150004 82 72 0.0 0.9 0.00 0.01 0.00 85 1021.4
20260830144504 81 65 0.0 1.7 0.00 0.01 0.00 85 1021.4
20260830143004 81 76 0.9 0.9 0.00 0.01 0.00 87 1021.4
20260830141524 81 59 0.0 2.6 0.00 0.01 0.00 88 1021.4
20260830140004 80 0 0.0 0.0 0.00 0.01 0.00 90 1021.5
20260830134504 80 78 0.0 0.9 0.00 0.01 0.00 91 1021.4
20260830133004 80 61 0.0 1.7 0.00 0.01 0.00 93 1021.4
20260830131525 79 73 0.0 0.9 0.00 0.01 0.00 96 1021.3
20260830130004 78 72 0.0 0.9 0.00 0.01 0.00 99 1021.4
20260830124503 77 0 0.0 0.0 0.00 0.01 0.00 100 1021.3
20260830123025 76 0 0.0 0.0 0.00 0.01 0.00 100 1021.4
20260830121504 75 0 0.0 0.0 0.00 0.01 0.00 100 1021.5
20260830120024 74 0 0.0 0.0 0.00 0.01 0.00 100 1021.7
20260830114525 73 0 0.0 0.0 0.00 0.01 0.00 100 1021.7
20260830113005 72 0 0.0 0.0 0.00 0.01 0.00 99 1021.6
20260830111504 72 0 0.0 0.0 0.00 0.01 0.00 99 1021.4
20260830110004 72 0 0.0 0.0 0.00 0.01 0.00 99 1021.4
20260830104504 72 0 0.0 0.0 0.00 0.01 0.00 99 1021.2
20260830103024 72 0 0.0 0.0 0.00 0.01 0.00 99 1021.2
20260830101504 72 0 0.0 0.0 0.00 0.01 0.00 99 1021.1
20260830100004 71 0 0.0 0.0 0.00 0.01 0.00 99 1021.1
20260830094524 71 0 0.0 0.0 0.00 0.01 0.00 99 1021.1
20260830093004 71 0 0.0 0.0 0.00 0.01 0.00 99 1021.1
20260830091504 71 0 0.0 0.0 0.00 0.01 0.00 99 1020.9
20260830090004 71 0 0.0 0.0 0.00 0.01 0.00 99 1020.7
20260830084503 71 0 0.0 0.0 0.00 0.01 0.00 99 1020.6
20260830083004 71 0 0.0 0.0 0.00 0.01 0.00 98 1020.6
20260830081504 71 0 0.0 0.0 0.00 0.01 0.00 98 1020.8
20260830080024 72 0 0.0 0.0 0.00 0.01 0.00 98 1020.8
20260830074505 72 0 0.0 0.0 0.00 0.01 0.00 98 1020.7
20260830073005 72 0 0.0 0.0 0.00 0.01 0.00 98 1020.7
20260830071505 72 0 0.0 0.0 0.00 0.01 0.00 98 1020.9
20260830070005 72 0 0.0 0.0 0.00 0.01 0.00 98 1020.8
20260830064526 72 0 0.0 0.0 0.00 0.02 0.00 98 1020.9
20260830063005 72 0 0.0 0.0 0.00 0.02 0.00 98 1021.0
20260830061505 73 0 0.0 0.0 0.00 0.02 0.00 98 1021.1
20260830060005 73 0 0.0 0.0 0.00 0.02 0.00 98 1021.3
20260830054506 73 0 0.0 0.0 0.00 0.02 0.00 98 1021.4
20260830053005 73 0 0.0 0.0 0.00 0.02 0.00 98 1021.4
20260830051505 74 0 0.0 0.0 0.00 0.02 0.00 98 1021.4
20260830050005 74 0 0.0 0.0 0.00 0.02 0.00 98 1021.4
20260830044505 74 0 0.0 0.0 0.00 0.08 0.00 98 1021.5
20260830043005 73 0 0.0 0.0 0.00 0.13 0.00 98 1021.7
20260830041526 73 0 0.0 0.0 0.00 0.14 0.00 98 1021.7